Time,TemperatureF,DewpointF,PressureIn,WindDirection,WindDirectionDegrees,WindSpeedMPH,WindSpeedGustMPH,Humidity,HourlyPrecipIn,Conditions,Clouds,dailyrainin,SoftwareType,DateUTC
2013-03-29 00:00:00,62.9,55.2,30.14,ESE,110,7.0,12.0,76,0.00,,---,0.00,VWS V14.01,2013-03-29 05:00:00,
2013-03-29 00:05:00,62.6,54.9,30.14,SE,129,7.0,8.0,76,0.00,,---,0.00,VWS V14.01,2013-03-29 05:05:00,
2013-03-29 00:10:00,62.6,55.3,30.14,SSE,150,5.0,9.0,77,0.00,,---,0.00,VWS V14.01,2013-03-29 05:10:00,
2013-03-29 00:15:00,62.5,55.2,30.14,ESE,117,6.0,9.0,77,0.00,,---,0.00,VWS V14.01,2013-03-29 05:15:00,
2013-03-29 00:20:00,62.4,55.1,30.14,SSE,163,5.0,9.0,77,0.00,,---,0.00,VWS V14.01,2013-03-29 05:20:00,
2013-03-29 00:25:00,62.3,55.0,30.14,ESE,113,6.0,9.0,77,0.00,,---,0.00,VWS V14.01,2013-03-29 05:25:00,
2013-03-29 00:30:00,62.2,54.9,30.14,SE,125,4.0,9.0,77,0.00,,---,0.00,VWS V14.01,2013-03-29 05:30:00,
2013-03-29 00:35:00,62.1,55.2,30.14,SSE,155,5.0,6.0,78,0.00,,---,0.00,VWS V14.01,2013-03-29 05:35:00,
2013-03-29 00:40:00,62.1,55.2,30.14,ESE,120,6.0,8.0,78,0.00,,---,0.00,VWS V14.01,2013-03-29 05:40:00,
2013-03-29 00:45:00,62.2,55.3,30.14,SE,144,4.0,8.0,78,0.00,,---,0.00,VWS V14.01,2013-03-29 05:45:00,
2013-03-29 00:50:00,62.1,55.2,30.14,East,101,4.0,8.0,78,0.00,,---,0.00,VWS V14.01,2013-03-29 05:50:00,
2013-03-29 00:55:00,62.1,55.2,30.14,SSE,163,4.0,8.0,78,0.00,,---,0.00,VWS V14.01,2013-03-29 05:55:00,
2013-03-29 01:00:00,62.0,55.1,30.14,ESE,117,2.0,8.0,78,0.00,,---,0.00,VWS V14.01,2013-03-29 06:00:00,
2013-03-29 01:05:00,62.0,55.4,30.14,SE,132,4.0,7.0,79,0.00,,---,0.00,VWS V14.01,2013-03-29 06:05:00,
2013-03-29 01:10:00,62.0,55.4,30.14,ESE,117,5.0,7.0,79,0.00,,---,0.00,VWS V14.01,2013-03-29 06:10:00,
2013-03-29 01:15:00,61.9,55.3,30.14,SE,140,3.0,7.0,79,0.00,,---,0.00,VWS V14.01,2013-03-29 06:15:00,
2013-03-29 01:20:00,61.8,55.2,30.14,SSW,194,3.0,7.0,79,0.00,,---,0.00,VWS V14.01,2013-03-29 06:20:00,
2013-03-29 01:25:00,61.7,55.1,30.13,ESE,120,4.0,7.0,79,0.00,,---,0.00,VWS V14.01,2013-03-29 06:25:00,
2013-03-29 01:30:00,61.8,55.2,30.14,SSE,164,3.0,7.0,79,0.00,,---,0.00,VWS V14.01,2013-03-29 06:30:00,
2013-03-29 01:35:00,61.8,55.2,30.14,SSE,148,3.0,6.0,79,0.00,,---,0.00,VWS V14.01,2013-03-29 06:35:00,
2013-03-29 01:40:00,61.8,55.2,30.14,SE,139,4.0,6.0,79,0.00,,---,0.00,VWS V14.01,2013-03-29 06:40:00,
2013-03-29 01:45:00,61.8,55.2,30.14,ESE,108,3.0,6.0,79,0.00,,---,0.00,VWS V14.01,2013-03-29 06:45:00,
2013-03-29 01:50:00,61.7,55.5,30.14,SE,135,3.0,6.0,80,0.00,,---,0.00,VWS V14.01,2013-03-29 06:50:00,
2013-03-29 01:55:00,61.6,55.4,30.14,SSE,148,3.0,6.0,80,0.00,,---,0.00,VWS V14.01,2013-03-29 06:55:00,
2013-03-29 02:00:00,61.6,55.4,30.14,SSE,148,4.0,6.0,80,0.00,,---,0.00,VWS V14.01,2013-03-29 07:00:00,
2013-03-29 02:05:00,61.7,55.5,30.15,ESE,117,3.0,4.0,80,0.00,,---,0.00,VWS V14.01,2013-03-29 07:05:00,
2013-03-29 02:10:00,61.7,55.5,30.15,ESE,121,3.0,5.0,80,0.00,,---,0.00,VWS V14.01,2013-03-29 07:10:00,
2013-03-29 02:15:00,61.7,55.5,30.15,SSE,154,3.0,6.0,80,0.00,,---,0.00,VWS V14.01,2013-03-29 07:15:00,
2013-03-29 02:20:00,61.9,55.3,30.14,SE,144,3.0,6.0,79,0.00,,---,0.00,VWS V14.01,2013-03-29 07:20:00,
2013-03-29 02:25:00,61.9,55.7,30.15,SSE,158,3.0,6.0,80,0.00,,---,0.00,VWS V14.01,2013-03-29 07:25:00,
2013-03-29 02:30:00,61.9,55.3,30.15,SSE,148,4.0,10.0,79,0.00,,---,0.00,VWS V14.01,2013-03-29 07:30:00,
2013-03-29 02:35:00,62.0,55.4,30.14,SSE,163,6.0,7.0,79,0.00,,---,0.00,VWS V14.01,2013-03-29 07:35:00,
2013-03-29 02:40:00,61.9,55.3,30.15,SSW,210,4.0,7.0,79,0.00,,---,0.00,VWS V14.01,2013-03-29 07:40:00,
2013-03-29 02:45:00,61.9,55.3,30.15,SSE,150,6.0,8.0,79,0.00,,---,0.00,VWS V14.01,2013-03-29 07:45:00,
2013-03-29 02:50:00,61.9,55.3,30.14,SSE,163,2.0,9.0,79,0.00,,---,0.00,VWS V14.01,2013-03-29 07:50:00,
2013-03-29 02:55:00,61.9,55.3,30.14,South,181,6.0,9.0,79,0.00,,---,0.00,VWS V14.01,2013-03-29 07:55:00,
2013-03-29 03:00:00,61.8,55.6,30.14,SSE,167,6.0,10.0,80,0.00,,---,0.00,VWS V14.01,2013-03-29 08:00:00,
2013-03-29 03:05:00,61.8,55.6,30.14,SSE,155,6.0,10.0,80,0.00,,---,0.00,VWS V14.01,2013-03-29 08:05:00,
2013-03-29 03:10:00,61.7,55.5,30.14,SSE,164,6.0,12.0,80,0.00,,---,0.00,VWS V14.01,2013-03-29 08:10:00,
2013-03-29 03:15:00,61.6,55.4,30.14,SSE,166,7.0,12.0,80,0.00,,---,0.00,VWS V14.01,2013-03-29 08:15:00,
2013-03-29 03:20:00,61.6,55.4,30.14,South,179,8.0,12.0,80,0.00,,---,0.00,VWS V14.01,2013-03-29 08:20:00,
2013-03-29 03:25:00,61.4,55.5,30.14,SSE,161,7.0,12.0,81,0.00,,---,0.00,VWS V14.01,2013-03-29 08:25:00,
2013-03-29 03:30:00,61.2,55.3,30.13,SSW,198,5.0,12.0,81,0.00,,---,0.00,VWS V14.01,2013-03-29 08:30:00,
2013-03-29 03:35:00,61.1,55.6,30.13,SSE,156,6.0,10.0,82,0.00,,---,0.00,VWS V14.01,2013-03-29 08:35:00,
2013-03-29 03:40:00,61.1,55.6,30.13,South,184,3.0,10.0,82,0.00,,---,0.00,VWS V14.01,2013-03-29 08:40:00,
2013-03-29 03:45:00,61.1,55.6,30.13,South,169,4.0,10.0,82,0.00,,---,0.00,VWS V14.01,2013-03-29 08:45:00,
2013-03-29 03:50:00,61.1,55.6,30.13,SSE,150,4.0,10.0,82,0.00,,---,0.00,VWS V14.01,2013-03-29 08:50:00,
2013-03-29 03:55:00,61.1,55.6,30.13,SSE,160,9.0,11.0,82,0.00,,---,0.00,VWS V14.01,2013-03-29 08:55:00,
2013-03-29 04:00:00,61.1,55.6,30.14,South,174,5.0,11.0,82,0.00,,---,0.00,VWS V14.01,2013-03-29 09:00:00,
2013-03-29 04:05:00,61.1,55.6,30.14,South,188,5.0,7.0,82,0.00,,---,0.00,VWS V14.01,2013-03-29 09:05:00,
2013-03-29 04:10:00,61.0,55.5,30.14,South,169,6.0,8.0,82,0.00,,---,0.00,VWS V14.01,2013-03-29 09:10:00,
2013-03-29 04:15:00,60.9,55.7,30.14,South,187,6.0,8.0,83,0.00,,---,0.00,VWS V14.01,2013-03-29 09:15:00,
2013-03-29 04:20:00,60.9,55.7,30.14,South,181,4.0,8.0,83,0.00,,---,0.00,VWS V14.01,2013-03-29 09:20:00,
2013-03-29 04:25:00,60.8,55.6,30.14,SSE,150,3.0,8.0,83,0.00,,---,0.00,VWS V14.01,2013-03-29 09:25:00,
2013-03-29 04:30:00,60.8,55.6,30.15,SSE,163,4.0,8.0,83,0.00,,---,0.00,VWS V14.01,2013-03-29 09:30:00,
2013-03-29 04:35:00,60.8,55.6,30.14,South,191,6.0,7.0,83,0.00,,---,0.00,VWS V14.01,2013-03-29 09:35:00,
2013-03-29 04:40:00,60.9,55.7,30.15,SSE,165,5.0,9.0,83,0.00,,---,0.00,VWS V14.01,2013-03-29 09:40:00,
2013-03-29 04:45:00,60.8,55.6,30.15,South,174,4.0,9.0,83,0.00,,---,0.00,VWS V14.01,2013-03-29 09:45:00,
2013-03-29 04:50:00,60.7,55.5,30.15,South,174,6.0,9.0,83,0.00,,---,0.00,VWS V14.01,2013-03-29 09:50:00,
2013-03-29 04:55:00,60.6,55.8,30.15,SSE,148,4.0,9.0,84,0.00,,---,0.00,VWS V14.01,2013-03-29 09:55:00,
2013-03-29 05:00:00,60.7,55.8,30.15,South,177,8.0,10.0,84,0.00,,---,0.00,VWS V14.01,2013-03-29 10:00:00,
2013-03-29 05:05:00,60.7,55.5,30.15,SSE,166,7.0,12.0,83,0.00,,---,0.00,VWS V14.01,2013-03-29 10:05:00,
2013-03-29 05:10:00,60.8,55.6,30.15,SSE,161,6.0,12.0,83,0.00,,---,0.00,VWS V14.01,2013-03-29 10:10:00,
2013-03-29 05:15:00,60.9,55.7,30.15,South,187,7.0,13.0,83,0.00,,---,0.00,VWS V14.01,2013-03-29 10:15:00,
2013-03-29 05:20:00,60.9,55.7,30.15,SSE,163,6.0,13.0,83,0.00,,---,0.00,VWS V14.01,2013-03-29 10:20:00,
2013-03-29 05:25:00,60.9,55.7,30.15,SSW,204,4.0,13.0,83,0.00,,---,0.00,VWS V14.01,2013-03-29 10:25:00,
2013-03-29 05:30:00,60.9,55.7,30.15,SSW,195,4.0,13.0,83,0.00,,---,0.00,VWS V14.01,2013-03-29 10:30:00,
2013-03-29 05:35:00,60.8,55.6,30.15,South,189,5.0,13.0,83,0.00,,---,0.00,VWS V14.01,2013-03-29 10:35:00,
2013-03-29 05:40:00,60.8,55.6,30.15,SSE,160,10.0,13.0,83,0.00,,---,0.00,VWS V14.01,2013-03-29 10:40:00,
2013-03-29 05:45:00,60.7,55.5,30.15,South,175,3.0,13.0,83,0.00,,---,0.00,VWS V14.01,2013-03-29 10:45:00,
2013-03-29 05:50:00,60.6,55.4,30.15,SSE,156,3.0,13.0,83,0.00,,---,0.00,VWS V14.01,2013-03-29 10:50:00,
2013-03-29 05:55:00,60.5,55.7,30.15,SSE,165,7.0,13.0,84,0.00,,---,0.00,VWS V14.01,2013-03-29 10:55:00,
2013-03-29 06:00:00,60.4,55.5,30.15,SSW,193,6.0,13.0,84,0.00,,---,0.00,VWS V14.01,2013-03-29 11:00:00,
2013-03-29 06:05:00,60.3,55.5,30.15,SSE,150,3.0,9.0,84,0.00,,---,0.00,VWS V14.01,2013-03-29 11:05:00,
2013-03-29 06:10:00,60.1,55.3,30.15,South,180,8.0,9.0,84,0.00,,---,0.00,VWS V14.01,2013-03-29 11:10:00,
2013-03-29 06:15:00,59.9,55.1,30.15,South,177,9.0,10.0,84,0.00,,---,0.00,VWS V14.01,2013-03-29 11:15:00,
2013-03-29 06:20:00,59.8,55.3,30.15,SSE,166,5.0,10.0,85,0.00,,---,0.00,VWS V14.01,2013-03-29 11:20:00,
2013-03-29 06:25:00,59.7,55.2,30.15,SSE,163,6.0,10.0,85,0.00,,---,0.00,VWS V14.01,2013-03-29 11:25:00,
2013-03-29 06:30:00,59.6,55.1,30.15,South,169,6.0,10.0,85,0.00,,---,0.00,VWS V14.01,2013-03-29 11:30:00,
2013-03-29 06:35:00,59.5,55.0,30.15,SSE,163,7.0,8.0,85,0.00,,---,0.00,VWS V14.01,2013-03-29 11:35:00,
2013-03-29 06:40:00,59.4,55.2,30.15,South,172,7.0,8.0,86,0.00,,---,0.00,VWS V14.01,2013-03-29 11:40:00,
2013-03-29 06:45:00,59.3,55.1,30.15,SSE,162,5.0,9.0,86,0.00,,---,0.00,VWS V14.01,2013-03-29 11:45:00,
2013-03-29 06:50:00,59.3,55.1,30.15,SSE,162,8.0,9.0,86,0.00,,---,0.00,VWS V14.01,2013-03-29 11:50:00,
2013-03-29 06:55:00,59.2,55.0,30.15,South,181,3.0,9.0,86,0.00,,---,0.00,VWS V14.01,2013-03-29 11:55:00,
2013-03-29 07:00:00,59.1,54.9,30.15,South,188,5.0,9.0,86,0.00,,---,0.00,VWS V14.01,2013-03-29 12:00:00,
2013-03-29 07:05:00,59.0,55.1,30.15,SSE,159,7.0,9.0,87,0.00,,---,0.00,VWS V14.01,2013-03-29 12:05:00,
2013-03-29 07:10:00,58.9,55.0,30.15,SSE,163,6.0,9.0,87,0.00,,---,0.00,VWS V14.01,2013-03-29 12:10:00,
2013-03-29 07:15:00,58.8,55.0,30.15,South,187,5.0,9.0,87,0.00,,---,0.00,VWS V14.01,2013-03-29 12:15:00,
2013-03-29 07:20:00,58.6,54.8,30.15,SSE,153,4.0,9.0,87,0.00,,---,0.00,VWS V14.01,2013-03-29 12:20:00,
2013-03-29 07:25:00,58.6,55.1,30.15,SSE,163,4.0,9.0,88,0.00,,---,0.00,VWS V14.01,2013-03-29 12:25:00,
2013-03-29 07:30:00,58.5,55.0,30.15,South,184,4.0,9.0,88,0.00,,---,0.00,VWS V14.01,2013-03-29 12:30:00,
2013-03-29 07:35:00,58.4,54.9,30.16,SSE,166,4.0,7.0,88,0.00,,---,0.00,VWS V14.01,2013-03-29 12:35:00,
2013-03-29 07:40:00,58.4,54.9,30.16,SSE,166,6.0,7.0,88,0.00,,---,0.00,VWS V14.01,2013-03-29 12:40:00,
2013-03-29 07:45:00,58.5,55.0,30.16,SSE,167,5.0,7.0,88,0.00,,---,0.00,VWS V14.01,2013-03-29 12:45:00,
2013-03-29 07:50:00,58.6,55.1,30.16,SE,127,3.0,7.0,88,0.00,,---,0.00,VWS V14.01,2013-03-29 12:50:00,
2013-03-29 07:55:00,58.8,55.3,30.16,SSE,153,2.0,8.0,88,0.00,,---,0.00,VWS V14.01,2013-03-29 12:55:00,
2013-03-29 08:00:00,59.0,55.5,30.17,SSE,155,2.0,8.0,88,0.00,,---,0.00,VWS V14.01,2013-03-29 13:00:00,
2013-03-29 08:05:00,59.0,55.1,30.17,South,169,3.0,6.0,87,0.00,,---,0.00,VWS V14.01,2013-03-29 13:05:00,
2013-03-29 08:10:00,59.0,55.1,30.17,SSE,158,4.0,7.0,87,0.00,,---,0.00,VWS V14.01,2013-03-29 13:10:00,
2013-03-29 08:15:00,59.1,55.2,30.17,South,180,3.0,7.0,87,0.00,,---,0.00,VWS V14.01,2013-03-29 13:15:00,
2013-03-29 08:20:00,59.1,55.2,30.17,South,184,3.0,7.0,87,0.00,,---,0.00,VWS V14.01,2013-03-29 13:20:00,
2013-03-29 08:25:00,59.2,55.3,30.17,SSE,160,5.0,7.0,87,0.00,,---,0.00,VWS V14.01,2013-03-29 13:25:00,
2013-03-29 08:30:00,59.3,55.4,30.17,SSE,153,4.0,8.0,87,0.00,,---,0.00,VWS V14.01,2013-03-29 13:30:00,
2013-03-29 08:35:00,59.5,55.6,30.17,SSE,158,8.0,10.0,87,0.00,,---,0.00,VWS V14.01,2013-03-29 13:35:00,
2013-03-29 08:40:00,59.7,55.8,30.17,SSE,163,5.0,10.0,87,0.00,,---,0.00,VWS V14.01,2013-03-29 13:40:00,
2013-03-29 08:45:00,60.1,55.9,30.17,SW,217,3.0,10.0,86,0.00,,---,0.00,VWS V14.01,2013-03-29 13:45:00,
2013-03-29 08:50:00,60.7,56.2,30.17,SSE,160,5.0,10.0,85,0.00,,---,0.00,VWS V14.01,2013-03-29 13:50:00,
2013-03-29 08:55:00,60.9,56.0,30.17,South,187,5.0,10.0,84,0.00,,---,0.00,VWS V14.01,2013-03-29 13:55:00,
2013-03-29 09:00:00,60.9,56.0,30.17,South,190,7.0,10.0,84,0.00,,---,0.00,VWS V14.01,2013-03-29 14:00:00,
2013-03-29 09:05:00,61.3,56.4,30.18,South,183,6.0,8.0,84,0.00,,---,0.00,VWS V14.01,2013-03-29 14:05:00,
2013-03-29 09:10:00,61.8,56.6,30.18,SSE,163,8.0,10.0,83,0.00,,---,0.00,VWS V14.01,2013-03-29 14:10:00,
2013-03-29 09:15:00,62.3,56.7,30.17,South,170,6.0,10.0,82,0.00,,---,0.00,VWS V14.01,2013-03-29 14:15:00,
2013-03-29 09:20:00,62.6,57.0,30.17,South,170,6.0,10.0,82,0.00,,---,0.00,VWS V14.01,2013-03-29 14:20:00,
2013-03-29 09:25:00,62.8,56.9,30.17,SSE,167,11.0,14.0,81,0.00,,---,0.00,VWS V14.01,2013-03-29 14:25:00,
2013-03-29 09:30:00,63.1,57.2,30.17,SSE,166,7.0,14.0,81,0.00,,---,0.00,VWS V14.01,2013-03-29 14:30:00,
2013-03-29 09:35:00,63.4,57.1,30.17,SSW,193,9.0,13.0,80,0.00,,---,0.00,VWS V14.01,2013-03-29 14:35:00,
2013-03-29 09:40:00,63.5,56.9,30.18,SW,225,9.0,13.0,79,0.00,,---,0.00,VWS V14.01,2013-03-29 14:40:00,
2013-03-29 09:45:00,63.6,57.3,30.18,SSW,193,6.0,13.0,80,0.00,,---,0.00,VWS V14.01,2013-03-29 14:45:00,
2013-03-29 09:50:00,63.8,57.5,30.17,SSW,210,7.0,13.0,80,0.00,,---,0.00,VWS V14.01,2013-03-29 14:50:00,
2013-03-29 09:55:00,64.1,57.5,30.17,SSE,163,10.0,13.0,79,0.00,,---,0.00,VWS V14.01,2013-03-29 14:55:00,
2013-03-29 10:00:00,64.4,57.8,30.17,South,184,6.0,13.0,79,0.00,,---,0.00,VWS V14.01,2013-03-29 15:00:00,
2013-03-29 10:05:00,64.9,57.5,30.17,SSW,197,8.0,12.0,77,0.00,,---,0.00,VWS V14.01,2013-03-29 15:05:00,
2013-03-29 10:10:00,64.9,57.5,30.17,SSW,205,6.0,12.0,77,0.00,,---,0.00,VWS V14.01,2013-03-29 15:10:00,
2013-03-29 10:15:00,65.0,58.0,30.17,ENE,78,8.0,12.0,78,0.00,,---,0.00,VWS V14.01,2013-03-29 15:15:00,
2013-03-29 10:20:00,65.4,58.0,30.17,SSE,168,7.0,12.0,77,0.00,,---,0.00,VWS V14.01,2013-03-29 15:20:00,
2013-03-29 10:25:00,65.7,57.9,30.16,SW,220,7.0,13.0,76,0.00,,---,0.00,VWS V14.01,2013-03-29 15:25:00,
2013-03-29 10:30:00,66.2,58.0,30.17,South,191,9.0,16.0,75,0.00,,---,0.00,VWS V14.01,2013-03-29 15:30:00,
2013-03-29 10:35:00,66.5,58.0,30.16,SSE,159,7.0,16.0,74,0.00,,---,0.00,VWS V14.01,2013-03-29 15:35:00,
2013-03-29 10:40:00,66.9,58.3,30.17,SSE,151,11.0,16.0,74,0.00,,---,0.00,VWS V14.01,2013-03-29 15:40:00,
2013-03-29 10:45:00,67.0,58.1,30.17,South,173,7.0,16.0,73,0.00,,---,0.00,VWS V14.01,2013-03-29 15:45:00,
2013-03-29 10:50:00,67.4,58.5,30.16,SW,218,7.0,16.0,73,0.00,,---,0.00,VWS V14.01,2013-03-29 15:50:00,
2013-03-29 10:55:00,67.5,58.2,30.16,SSE,163,11.0,16.0,72,0.00,,---,0.00,VWS V14.01,2013-03-29 15:55:00,
2013-03-29 11:00:00,68.0,58.7,30.16,SW,217,6.0,16.0,72,0.00,,---,0.00,VWS V14.01,2013-03-29 16:00:00,
2013-03-29 11:04:00,68.3,58.5,30.16,SSE,167,8.0,18.0,71,0.00,,---,0.00,VWS V14.01,2013-03-29 16:04:00,
2013-03-29 11:10:00,68.6,58.4,30.16,SSE,150,16.0,18.0,70,0.00,,---,0.00,VWS V14.01,2013-03-29 16:10:00,
2013-03-29 11:15:00,68.8,58.6,30.16,South,172,8.0,18.0,70,0.00,,---,0.00,VWS V14.01,2013-03-29 16:15:00,
2013-03-29 11:20:00,68.9,58.3,30.15,South,186,8.0,18.0,69,0.00,,---,0.00,VWS V14.01,2013-03-29 16:20:00,
2013-03-29 11:24:00,68.8,58.6,30.15,South,175,11.0,18.0,70,0.00,,---,0.00,VWS V14.01,2013-03-29 16:24:00,
2013-03-29 11:29:00,68.8,58.2,30.15,SSE,156,12.0,18.0,69,0.00,,---,0.00,VWS V14.01,2013-03-29 16:29:00,
2013-03-29 11:34:00,69.0,58.0,30.15,SSE,148,10.0,15.0,68,0.00,,---,0.00,VWS V14.01,2013-03-29 16:34:00,
2013-03-29 11:39:00,69.1,58.1,30.15,SSE,165,9.0,15.0,68,0.00,,---,0.00,VWS V14.01,2013-03-29 16:39:00,
2013-03-29 11:44:00,69.8,58.8,30.15,SW,215,7.0,15.0,68,0.00,,---,0.00,VWS V14.01,2013-03-29 16:44:00,
2013-03-29 11:49:00,70.0,58.1,30.15,SE,146,10.0,17.0,66,0.00,,---,0.00,VWS V14.01,2013-03-29 16:49:00,
2013-03-29 11:54:00,70.1,58.2,30.15,South,186,7.0,17.0,66,0.00,,---,0.00,VWS V14.01,2013-03-29 16:54:00,
2013-03-29 11:59:00,70.2,58.3,30.15,South,172,7.0,17.0,66,0.00,,---,0.00,VWS V14.01,2013-03-29 16:59:00,
2013-03-29 12:04:00,70.0,57.7,30.15,SSE,168,6.0,11.0,65,0.00,,---,0.00,VWS V14.01,2013-03-29 17:04:00,
2013-03-29 12:09:00,70.3,57.1,30.14,SW,226,10.0,15.0,63,0.00,,---,0.00,VWS V14.01,2013-03-29 17:09:00,
2013-03-29 12:14:00,70.8,58.0,30.14,SSE,152,10.0,16.0,64,0.00,,---,0.00,VWS V14.01,2013-03-29 17:14:00,
2013-03-29 12:19:00,71.3,57.2,30.14,SW,215,9.0,18.0,61,0.00,,---,0.00,VWS V14.01,2013-03-29 17:19:00,
2013-03-29 12:24:00,71.3,58.1,30.14,SSE,163,8.0,18.0,63,0.00,,---,0.00,VWS V14.01,2013-03-29 17:24:00,
2013-03-29 12:29:00,71.2,57.5,30.14,SW,217,11.0,18.0,62,0.00,,---,0.00,VWS V14.01,2013-03-29 17:29:00,
2013-03-29 12:34:00,71.4,57.7,30.14,SW,219,8.0,14.0,62,0.00,,---,0.00,VWS V14.01,2013-03-29 17:34:00,
2013-03-29 12:39:00,71.6,58.3,30.13,South,187,8.0,19.0,63,0.00,,---,0.00,VWS V14.01,2013-03-29 17:39:00,
2013-03-29 12:44:00,71.5,57.8,30.13,SSW,211,7.0,19.0,62,0.00,,---,0.00,VWS V14.01,2013-03-29 17:44:00,
2013-03-29 12:49:00,71.5,57.8,30.13,SSE,147,11.0,19.0,62,0.00,,---,0.00,VWS V14.01,2013-03-29 17:49:00,
2013-03-29 12:54:00,71.6,58.3,30.13,South,191,4.0,19.0,63,0.00,,---,0.00,VWS V14.01,2013-03-29 17:54:00,
2013-03-29 12:59:00,71.6,58.3,30.13,SSW,211,6.0,19.0,63,0.00,,---,0.00,VWS V14.01,2013-03-29 17:59:00,
2013-03-29 13:04:00,71.6,57.9,30.13,SSW,207,10.0,15.0,62,0.00,,---,0.00,VWS V14.01,2013-03-29 18:04:00,
2013-03-29 13:09:00,71.5,58.3,30.13,South,173,4.0,15.0,63,0.00,,---,0.00,VWS V14.01,2013-03-29 18:09:00,
2013-03-29 13:14:00,71.2,57.5,30.13,SSW,211,9.0,15.0,62,0.00,,---,0.00,VWS V14.01,2013-03-29 18:14:00,
2013-03-29 13:19:00,71.3,58.5,30.13,SSE,163,11.0,16.0,64,0.00,,---,0.00,VWS V14.01,2013-03-29 18:19:00,
2013-03-29 13:24:00,71.9,57.7,30.12,SSW,207,11.0,16.0,61,0.00,,---,0.00,VWS V14.01,2013-03-29 18:24:00,
2013-03-29 13:29:00,72.3,58.1,30.12,SSW,198,8.0,16.0,61,0.00,,---,0.00,VWS V14.01,2013-03-29 18:29:00,
2013-03-29 13:34:00,72.7,58.0,30.11,SSW,193,8.0,19.0,60,0.00,,---,0.00,VWS V14.01,2013-03-29 18:34:00,
2013-03-29 13:39:00,72.6,57.9,30.11,SSE,159,14.0,19.0,60,0.00,,---,0.00,VWS V14.01,2013-03-29 18:39:00,
2013-03-29 13:44:00,72.6,58.4,30.11,SW,215,11.0,19.0,61,0.00,,---,0.00,VWS V14.01,2013-03-29 18:44:00,
2013-03-29 13:49:00,72.2,58.5,30.11,SSW,212,8.0,19.0,62,0.00,,---,0.00,VWS V14.01,2013-03-29 18:49:00,
2013-03-29 13:54:00,72.8,58.6,30.11,SW,232,2.0,19.0,61,0.00,,---,0.00,VWS V14.01,2013-03-29 18:54:00,
2013-03-29 13:59:00,73.0,58.3,30.11,SW,228,5.0,19.0,60,0.00,,---,0.00,VWS V14.01,2013-03-29 18:59:00,
2013-03-29 14:04:00,73.1,58.4,30.11,SW,233,8.0,12.0,60,0.00,,---,0.00,VWS V14.01,2013-03-29 19:04:00,
2013-03-29 14:09:00,73.1,59.3,30.11,SW,230,6.0,12.0,62,0.00,,---,0.00,VWS V14.01,2013-03-29 19:09:00,
2013-03-29 14:14:00,73.3,58.6,30.11,SSE,161,3.0,12.0,60,0.00,,---,0.00,VWS V14.01,2013-03-29 19:14:00,
2013-03-29 14:19:00,73.6,58.4,30.11,SW,233,8.0,12.0,59,0.00,,---,0.00,VWS V14.01,2013-03-29 19:19:00,
2013-03-29 14:24:00,73.4,58.7,30.11,SW,235,4.0,12.0,60,0.00,,---,0.00,VWS V14.01,2013-03-29 19:24:00,
2013-03-29 14:29:00,73.2,58.5,30.11,SSE,166,5.0,12.0,60,0.00,,---,0.00,VWS V14.01,2013-03-29 19:29:00,
2013-03-29 14:34:00,73.2,59.0,30.10,SSE,153,4.0,10.0,61,0.00,,---,0.00,VWS V14.01,2013-03-29 19:34:00,
2013-03-29 14:39:00,73.1,59.3,30.10,SSW,198,6.0,10.0,62,0.00,,---,0.00,VWS V14.01,2013-03-29 19:39:00,
2013-03-29 14:44:00,73.2,59.0,30.10,SW,219,8.0,11.0,61,0.00,,---,0.00,VWS V14.01,2013-03-29 19:44:00,
2013-03-29 14:49:00,73.3,58.6,30.10,WSW,255,3.0,11.0,60,0.00,,---,0.00,VWS V14.01,2013-03-29 19:49:00,
2013-03-29 14:54:00,73.4,59.2,30.10,SW,222,2.0,11.0,61,0.00,,---,0.00,VWS V14.01,2013-03-29 19:54:00,
2013-03-29 14:59:00,73.5,58.8,30.10,SSE,148,4.0,11.0,60,0.00,,---,0.00,VWS V14.01,2013-03-29 19:59:00,
2013-03-29 15:04:00,73.3,58.6,30.10,SSE,162,6.0,9.0,60,0.00,,---,0.00,VWS V14.01,2013-03-29 20:04:00,
2013-03-29 15:09:00,73.1,58.9,30.10,SSE,166,5.0,9.0,61,0.00,,---,0.00,VWS V14.01,2013-03-29 20:09:00,
2013-03-29 15:14:00,72.6,59.3,30.10,South,176,3.0,9.0,63,0.00,,---,0.00,VWS V14.01,2013-03-29 20:14:00,
2013-03-29 15:19:00,72.1,59.7,30.09,SE,143,1.0,9.0,65,0.00,,---,0.00,VWS V14.01,2013-03-29 20:19:00,
2013-03-29 15:24:00,72.4,59.1,30.09,South,186,4.0,9.0,63,0.00,,---,0.00,VWS V14.01,2013-03-29 20:24:00,
2013-03-29 15:29:00,72.6,58.8,30.09,SSW,203,3.0,9.0,62,0.00,,---,0.00,VWS V14.01,2013-03-29 20:29:00,
2013-03-29 15:34:00,72.7,58.9,30.09,SSW,210,5.0,7.0,62,0.00,,---,0.00,VWS V14.01,2013-03-29 20:34:00,
2013-03-29 15:39:00,72.5,58.3,30.09,SW,236,2.0,7.0,61,0.00,,---,0.00,VWS V14.01,2013-03-29 20:39:00,
2013-03-29 15:44:00,72.6,58.8,30.09,SSE,162,2.0,7.0,62,0.00,,---,0.00,VWS V14.01,2013-03-29 20:44:00,
2013-03-29 15:49:00,72.2,58.5,30.09,SE,127,2.0,7.0,62,0.00,,---,0.00,VWS V14.01,2013-03-29 20:49:00,
2013-03-29 15:54:00,71.9,58.6,30.09,SE,131,1.0,7.0,63,0.00,,---,0.00,VWS V14.01,2013-03-29 20:54:00,
2013-03-29 15:59:00,71.4,58.6,30.09,ESE,113,1.0,7.0,64,0.00,,---,0.00,VWS V14.01,2013-03-29 20:59:00,
2013-03-29 16:04:00,70.8,58.9,30.08,East,100,3.0,4.0,66,0.00,,---,0.00,VWS V14.01,2013-03-29 21:04:00,
2013-03-29 16:09:00,70.3,58.4,30.09,ESE,121,3.0,4.0,66,0.00,,---,0.00,VWS V14.01,2013-03-29 21:09:00,
2013-03-29 16:14:00,70.5,58.2,30.08,SE,134,4.0,4.0,65,0.00,,---,0.00,VWS V14.01,2013-03-29 21:14:00,
2013-03-29 16:19:00,70.8,58.5,30.09,SE,139,3.0,5.0,65,0.00,,---,0.00,VWS V14.01,2013-03-29 21:19:00,
2013-03-29 16:24:00,70.9,58.1,30.08,SE,131,1.0,5.0,64,0.00,,---,0.00,VWS V14.01,2013-03-29 21:24:00,
2013-03-29 16:29:00,71.2,58.4,30.08,SE,141,2.0,5.0,64,0.00,,---,0.00,VWS V14.01,2013-03-29 21:29:00,
2013-03-29 16:34:00,71.4,58.2,30.08,East,101,3.0,5.0,63,0.00,,---,0.00,VWS V14.01,2013-03-29 21:34:00,
2013-03-29 16:39:00,71.5,58.3,30.08,SE,124,2.0,5.0,63,0.00,,---,0.00,VWS V14.01,2013-03-29 21:39:00,
2013-03-29 16:44:00,71.7,58.5,30.08,SSE,153,2.0,5.0,63,0.00,,---,0.00,VWS V14.01,2013-03-29 21:44:00,
2013-03-29 16:49:00,71.9,58.6,30.08,SSE,157,1.0,5.0,63,0.00,,---,0.00,VWS V14.01,2013-03-29 21:49:00,
2013-03-29 16:54:00,72.1,58.4,30.08,ESE,117,2.0,5.0,62,0.00,,---,0.00,VWS V14.01,2013-03-29 21:54:00,
2013-03-29 16:59:00,72.1,58.4,30.07,ESE,114,2.0,5.0,62,0.00,,---,0.00,VWS V14.01,2013-03-29 21:59:00,
2013-03-29 17:04:00,72.2,58.5,30.08,ESE,117,1.0,2.0,62,0.00,,---,0.00,VWS V14.01,2013-03-29 22:04:00,
2013-03-29 17:09:00,72.3,58.1,30.07,ESE,120,1.0,2.0,61,0.00,,---,0.00,VWS V14.01,2013-03-29 22:09:00,
2013-03-29 17:14:00,72.3,58.6,30.08,SE,127,0.0,2.0,62,0.00,,---,0.00,VWS V14.01,2013-03-29 22:14:00,
2013-03-29 17:19:00,72.2,58.5,30.08,SE,143,0.0,2.0,62,0.00,,---,0.00,VWS V14.01,2013-03-29 22:19:00,
2013-03-29 17:24:00,71.9,58.2,30.07,SE,125,1.0,2.0,62,0.00,,---,0.00,VWS V14.01,2013-03-29 22:24:00,
2013-03-29 17:29:00,71.6,58.3,30.08,SE,134,0.0,2.0,63,0.00,,---,0.00,VWS V14.01,2013-03-29 22:29:00,
2013-03-29 17:34:00,71.4,58.2,30.07,SE,145,2.0,4.0,63,0.00,,---,0.00,VWS V14.01,2013-03-29 22:34:00,
2013-03-29 17:39:00,71.5,58.3,30.07,South,181,2.0,4.0,63,0.00,,---,0.00,VWS V14.01,2013-03-29 22:39:00,
2013-03-29 17:44:00,71.5,58.3,30.07,SSE,161,4.0,5.0,63,0.00,,---,0.00,VWS V14.01,2013-03-29 22:44:00,
2013-03-29 17:49:00,71.4,58.6,30.07,SSE,166,3.0,5.0,64,0.00,,---,0.00,VWS V14.01,2013-03-29 22:49:00,
2013-03-29 17:54:00,71.5,58.7,30.07,SSE,155,4.0,8.0,64,0.00,,---,0.00,VWS V14.01,2013-03-29 22:54:00,
2013-03-29 17:59:00,71.6,58.8,30.07,SSE,165,4.0,8.0,64,0.00,,---,0.00,VWS V14.01,2013-03-29 22:59:00,
2013-03-29 18:04:00,71.8,59.0,30.07,South,172,7.0,10.0,64,0.00,,---,0.00,VWS V14.01,2013-03-29 23:04:00,
2013-03-29 18:09:00,71.9,58.6,30.07,SSE,150,8.0,10.0,63,0.00,,---,0.00,VWS V14.01,2013-03-29 23:09:00,
2013-03-29 18:14:00,71.8,59.0,30.08,South,191,5.0,10.0,64,0.00,,---,0.00,VWS V14.01,2013-03-29 23:14:00,
2013-03-29 18:19:00,71.3,58.9,30.08,South,190,5.0,10.0,65,0.00,,---,0.00,VWS V14.01,2013-03-29 23:19:00,
2013-03-29 18:24:00,71.1,58.8,30.07,SE,143,4.0,10.0,65,0.00,,---,0.00,VWS V14.01,2013-03-29 23:24:00,
2013-03-29 18:29:00,71.0,58.7,30.07,South,170,5.0,10.0,65,0.00,,---,0.00,VWS V14.01,2013-03-29 23:29:00,
2013-03-29 18:34:00,70.9,59.0,30.07,South,169,3.0,7.0,66,0.00,,---,0.00,VWS V14.01,2013-03-29 23:34:00,
2013-03-29 18:39:00,70.9,59.0,30.07,South,169,5.0,7.0,66,0.00,,---,0.00,VWS V14.01,2013-03-29 23:39:00,
2013-03-29 18:44:00,70.9,58.6,30.07,SSE,158,6.0,8.0,65,0.00,,---,0.00,VWS V14.01,2013-03-29 23:44:00,
2013-03-29 18:49:00,70.7,58.4,30.07,South,186,6.0,9.0,65,0.00,,---,0.00,VWS V14.01,2013-03-29 23:49:00,
2013-03-29 18:54:00,70.5,58.2,30.07,SE,141,4.0,9.0,65,0.00,,---,0.00,VWS V14.01,2013-03-29 23:54:00,
2013-03-29 18:59:00,70.2,58.3,30.07,SSE,159,4.0,9.0,66,0.00,,---,0.00,VWS V14.01,2013-03-29 23:59:00,
2013-03-29 19:04:00,70.0,58.1,30.07,SSE,165,5.0,8.0,66,0.00,,---,0.00,VWS V14.01,2013-03-30 00:04:00,
2013-03-29 19:09:00,69.8,58.4,30.07,SSE,160,4.0,8.0,67,0.00,,---,0.00,VWS V14.01,2013-03-30 00:09:00,
2013-03-29 19:14:00,69.9,58.5,30.07,South,181,2.0,8.0,67,0.00,,---,0.00,VWS V14.01,2013-03-30 00:14:00,
2013-03-29 19:19:00,69.6,58.2,30.07,South,172,5.0,8.0,67,0.00,,---,0.00,VWS V14.01,2013-03-30 00:19:00,
2013-03-29 19:24:00,69.6,58.2,30.07,ESE,107,2.0,8.0,67,0.00,,---,0.00,VWS V14.01,2013-03-30 00:24:00,
2013-03-29 19:29:00,69.3,58.3,30.06,SE,142,1.0,8.0,68,0.00,,---,0.00,VWS V14.01,2013-03-30 00:29:00,
2013-03-29 19:34:00,68.9,58.3,30.07,SE,134,1.0,2.0,69,0.00,,---,0.00,VWS V14.01,2013-03-30 00:34:00,
2013-03-29 19:39:00,68.4,58.2,30.07,SE,132,2.0,2.0,70,0.00,,---,0.00,VWS V14.01,2013-03-30 00:39:00,
2013-03-29 19:44:00,67.9,57.8,30.07,SE,146,2.0,2.0,70,0.00,,---,0.00,VWS V14.01,2013-03-30 00:44:00,
2013-03-29 19:49:00,67.7,58.0,30.07,SE,135,1.0,3.0,71,0.00,,---,0.00,VWS V14.01,2013-03-30 00:49:00,
2013-03-29 19:54:00,67.5,57.8,30.07,SSE,160,1.0,3.0,71,0.00,,---,0.00,VWS V14.01,2013-03-30 00:54:00,
2013-03-29 19:59:00,67.5,57.8,30.07,SE,140,1.0,3.0,71,0.00,,---,0.00,VWS V14.01,2013-03-30 00:59:00,
2013-03-29 20:04:00,67.5,57.8,30.07,ESE,117,1.0,2.0,71,0.00,,---,0.00,VWS V14.01,2013-03-30 01:04:00,
2013-03-29 20:09:00,67.3,58.0,30.07,SSE,151,1.0,2.0,72,0.00,,---,0.00,VWS V14.01,2013-03-30 01:09:00,
2013-03-29 20:14:00,67.2,57.9,30.07,SSE,156,2.0,2.0,72,0.00,,---,0.00,VWS V14.01,2013-03-30 01:14:00,
2013-03-29 20:19:00,67.5,58.2,30.07,SE,144,1.0,2.0,72,0.00,,---,0.00,VWS V14.01,2013-03-30 01:19:00,
2013-03-29 20:24:00,67.7,58.0,30.07,SSE,150,2.0,3.0,71,0.00,,---,0.00,VWS V14.01,2013-03-30 01:24:00,
2013-03-29 20:29:00,67.9,57.8,30.07,SE,131,4.0,5.0,70,0.00,,---,0.00,VWS V14.01,2013-03-30 01:29:00,
2013-03-29 20:34:00,67.7,58.0,30.07,SSE,148,3.0,5.0,71,0.00,,---,0.00,VWS V14.01,2013-03-30 01:34:00,
2013-03-29 20:39:00,67.5,57.8,30.07,ESE,117,2.0,5.0,71,0.00,,---,0.00,VWS V14.01,2013-03-30 01:39:00,
2013-03-29 20:44:00,67.3,58.0,30.07,SE,146,1.0,5.0,72,0.00,,---,0.00,VWS V14.01,2013-03-30 01:44:00,
2013-03-29 20:49:00,67.1,58.2,30.07,SSE,151,1.0,5.0,73,0.00,,---,0.00,VWS V14.01,2013-03-30 01:49:00,
2013-03-29 20:54:00,67.0,58.1,30.07,SSE,147,0.0,5.0,73,0.00,,---,0.00,VWS V14.01,2013-03-30 01:54:00,
2013-03-29 20:59:00,67.1,58.2,30.07,SE,140,1.0,5.0,73,0.00,,---,0.00,VWS V14.01,2013-03-30 01:59:00,
2013-03-29 21:04:00,67.2,58.3,30.07,SE,138,1.0,4.0,73,0.00,,---,0.00,VWS V14.01,2013-03-30 02:04:00,
2013-03-29 21:09:00,66.9,58.0,30.08,SSE,148,1.0,4.0,73,0.00,,---,0.00,VWS V14.01,2013-03-30 02:09:00,
2013-03-29 21:14:00,66.8,57.9,30.08,SE,142,0.0,4.0,73,0.00,,---,0.00,VWS V14.01,2013-03-30 02:14:00,
2013-03-29 21:19:00,66.9,58.0,30.08,SE,141,1.0,4.0,73,0.00,,---,0.00,VWS V14.01,2013-03-30 02:19:00,
2013-03-29 21:24:00,67.0,58.1,30.08,SE,132,1.0,4.0,73,0.00,,---,0.00,VWS V14.01,2013-03-30 02:24:00,
2013-03-29 21:29:00,67.1,58.2,30.09,SSE,151,2.0,4.0,73,0.00,,---,0.00,VWS V14.01,2013-03-30 02:29:00,
2013-03-29 21:34:00,67.0,58.1,30.09,SE,136,1.0,2.0,73,0.00,,---,0.00,VWS V14.01,2013-03-30 02:34:00,
2013-03-29 21:39:00,67.1,58.2,30.09,SE,143,1.0,2.0,73,0.00,,---,0.00,VWS V14.01,2013-03-30 02:39:00,
2013-03-29 21:44:00,66.9,58.3,30.08,ESE,120,3.0,4.0,74,0.00,,---,0.00,VWS V14.01,2013-03-30 02:44:00,
2013-03-29 21:49:00,66.7,58.2,30.08,SE,138,3.0,5.0,74,0.00,,---,0.00,VWS V14.01,2013-03-30 02:49:00,
2013-03-29 21:54:00,66.5,58.0,30.08,SE,139,3.0,5.0,74,0.00,,---,0.00,VWS V14.01,2013-03-30 02:54:00,
2013-03-29 21:59:00,66.3,58.2,30.08,SSE,148,1.0,5.0,75,0.00,,---,0.00,VWS V14.01,2013-03-30 02:59:00,
2013-03-29 22:04:00,66.0,57.9,30.08,SSE,150,1.0,2.0,75,0.00,,---,0.00,VWS V14.01,2013-03-30 03:04:00,
2013-03-29 22:09:00,66.1,58.0,30.08,SE,138,0.0,3.0,75,0.00,,---,0.00,VWS V14.01,2013-03-30 03:09:00,
2013-03-29 22:14:00,66.4,58.2,30.08,SE,132,2.0,3.0,75,0.00,,---,0.00,VWS V14.01,2013-03-30 03:14:00,
2013-03-29 22:19:00,66.5,58.3,30.08,SE,138,1.0,3.0,75,0.00,,---,0.00,VWS V14.01,2013-03-30 03:19:00,
2013-03-29 22:24:00,66.4,58.2,30.08,SE,145,1.0,3.0,75,0.00,,---,0.00,VWS V14.01,2013-03-30 03:24:00,
2013-03-29 22:29:00,66.2,58.0,30.08,ESE,105,2.0,3.0,75,0.00,,---,0.00,VWS V14.01,2013-03-30 03:29:00,
2013-03-29 22:34:00,66.2,58.0,30.08,SE,136,1.0,4.0,75,0.00,,---,0.00,VWS V14.01,2013-03-30 03:34:00,
2013-03-29 22:39:00,66.3,58.2,30.08,SE,125,1.0,4.0,75,0.00,,---,0.00,VWS V14.01,2013-03-30 03:39:00,
2013-03-29 22:44:00,66.2,58.0,30.08,SE,124,2.0,4.0,75,0.00,,---,0.00,VWS V14.01,2013-03-30 03:44:00,
2013-03-29 22:49:00,66.2,58.0,30.09,ESE,110,2.0,4.0,75,0.00,,---,0.00,VWS V14.01,2013-03-30 03:49:00,
2013-03-29 22:54:00,66.3,58.2,30.08,SE,135,4.0,5.0,75,0.00,,---,0.00,VWS V14.01,2013-03-30 03:54:00,
2013-03-29 22:59:00,66.4,58.2,30.08,ESE,110,4.0,5.0,75,0.00,,---,0.00,VWS V14.01,2013-03-30 03:59:00,
2013-03-29 23:00:00,66.4,58.2,30.08,ESE,114,4.0,5.0,75,0.00,,---,0.00,VWS V14.01,2013-03-30 04:00:00,
2013-03-29 23:05:00,65.9,58.1,30.08,East,99,4.0,6.0,76,0.00,,---,0.00,VWS V14.01,2013-03-30 04:05:00,
2013-03-29 23:10:00,65.8,58.0,30.08,SE,132,6.0,7.0,76,0.00,,---,0.00,VWS V14.01,2013-03-30 04:10:00,
2013-03-29 23:15:00,66.0,58.2,30.08,ESE,103,4.0,7.0,76,0.00,,---,0.00,VWS V14.01,2013-03-30 04:15:00,
2013-03-29 23:20:00,65.5,58.1,30.07,SE,124,6.0,7.0,77,0.00,,---,0.00,VWS V14.01,2013-03-30 04:20:00,
2013-03-29 23:25:00,65.3,58.3,30.07,ESE,116,6.0,8.0,78,0.00,,---,0.00,VWS V14.01,2013-03-30 04:25:00,
2013-03-29 23:30:00,65.1,58.1,30.06,ESE,111,5.0,8.0,78,0.00,,---,0.00,VWS V14.01,2013-03-30 04:30:00,
2013-03-29 23:35:00,65.1,58.1,30.06,SE,129,3.0,5.0,78,0.00,,---,0.00,VWS V14.01,2013-03-30 04:35:00,
2013-03-29 23:40:00,65.0,58.0,30.06,ESE,121,2.0,5.0,78,0.00,,---,0.00,VWS V14.01,2013-03-30 04:40:00,
2013-03-29 23:45:00,65.1,58.1,30.06,SE,126,3.0,5.0,78,0.00,,---,0.00,VWS V14.01,2013-03-30 04:45:00,
2013-03-29 23:50:00,65.1,58.1,30.06,SE,136,1.0,5.0,78,0.00,,---,0.00,VWS V14.01,2013-03-30 04:50:00,
2013-03-29 23:55:00,64.9,57.9,30.06,SE,140,1.0,5.0,78,0.00,,---,0.00,VWS V14.01,2013-03-30 04:55:00,